SKYTERRA 1

Last updated on Sat Sep 12 2026 00:03:01 GMT+0000 (Coordinated Universal Time)

1 37218U 10061A 26254.54221464 -.00000132 00000+0 00000+0 0 9991 2 37218 5.3066 50.6535 0000739 131.0058 262.8206 1.00272042 58067
UTC large
Height (km)
Speed (km/s)
/
Latitude / Longitude
Inclination (degrees)
Orbital Period (minutes)
Azimuth
Elevation
Range (km)
Doppler Factor

Next 0 passes for location: London (51.5072 / 0.1276)

No passes found over London.
SKYTERRA 1